Location: Caltech
(34.1382°N, 118.1253°W)
Time: 11:09:15
(UTC-07:00)

AO-7 - Visible Passes

Search period start: 21 September 2014 00:00
Search period end: 01 October 2014 00:00
Orbit: 1440 x 1459 km, 101.5° (Epoch: 20 September)

Date Brightness Start Highest point End Pass type
(mag) Time Alt. Az. Time Alt. Az. Time Alt. Az.
21 Sep ? 04:21:50 10° NE 04:29:08 34° E 04:36:24 10° SSE visible
22 Sep ? 03:26:59 10° E 03:28:30 11° E 03:30:01 10° ESE visible
22 Sep ? 05:14:01 10° NNE 05:22:19 76° ESE 05:30:36 10° S visible
23 Sep ? 04:15:07 10° NE 04:22:09 30° E 04:29:09 10° SSE visible
23 Sep ? 06:07:11 10° N 06:15:06 52° WNW 06:23:01 10° SW visible
24 Sep ? 05:07:08 10° NNE 05:15:24 69° ESE 05:23:38 10° S visible
25 Sep ? 04:08:26 10° NE 04:15:10 27° E 04:21:51 10° SSE visible
25 Sep ? 06:00:11 10° N 06:08:13 57° WNW 06:16:16 10° SW visible
26 Sep ? 05:00:15 10° NNE 05:08:27 62° ESE 05:16:38 10° S visible
27 Sep ? 04:01:49 10° NE 04:08:11 24° E 04:14:30 10° SSE visible
27 Sep ? 05:53:12 10° N 06:01:20 63° WNW 06:09:29 10° SSW visible
28 Sep ? 04:53:24 10° NNE 05:01:31 56° ESE 05:09:36 10° S visible
29 Sep ? 03:55:14 10° NE 04:01:10 21° E 04:07:05 10° SE visible
29 Sep ? 05:46:14 10° N 05:54:27 70° WNW 06:02:40 10° SSW visible
30 Sep ? 04:46:33 10° NNE 04:54:34 51° ESE 05:02:32 10° S visible
